North Bend, OR

9:13 AM PST on February 08, 2016 (GMT -0800)
North Bend Municipal

Weather History for KOTH - December, 2013

Change the Weather History Date:

Friday, December 6, 2013

  Actual Average Record
Temperature  
Mean Temperature 40 °F 46 °F  
Max Temperature 45 °F 51 °F 69 °F (1934)
Min Temperature 34 °F 40 °F 25 °F (2009)
Degree Days  
Heating Degree Days 25 19  
Month to date heating degree days 146 114  
Since 1 July heating degree days 1261 1566  
Cooling Degree Days 0 0  
Month to date cooling degree days 0 0  
Year to date cooling degree days 13 2  
Moisture  
Dew Point 35 °F    
Average Humidity 91    
Maximum Humidity 100    
Minimum Humidity 75    
Precipitation  
Precipitation 0.22 in 0.36 in 4.04 in (1987)
Month to date precipitation 1.03 2.28  
Year to date precipitation 28.37 56.06  
Sea Level Pressure  
Sea Level Pressure 29.96 in    
Wind  
Wind Speed 8 mph (East)    
Max Wind Speed 13 mph    
Max Gust Speed 20 mph    
Visibility 10 miles    
Events      
T = Trace of Precipitation, MM = Missing Value Source: NWS Daily Summary

Daily Weather History Graph

Daily Weather History Graph

Search for Another Location

Airport or City:

Trip Planner

Search our weather history database for the weather conditions in past years. The results will help you decide how hot, cold, wet, or windy it might be!

Date:

Astronomy

Dec. 06, 2013 Rise Set
Actual Time 7:35 AM PST 4:40 PM PST
Civil Twilight 7:03 AM PST 5:13 PM PST
Nautical Twilight 6:27 AM PST 5:49 PM PST
Astronomical Twilight 5:52 AM PST 6:23 PM PST
Moon 10:40 AM PST (12/6) 9:24 PM PST (12/6)
Length of Visible Light 10h 10m
Length of Day
9h 05m
Waxing Crescent, 20% of the Moon is Illuminated
Dec 6
Waxing Crescent
Dec 9
First Quarter
Dec 17
Full
Dec 25
Last Quarter
Jan 1
New

Hourly Weather History & Observations

Time (PST) Temp. Windchill Dew Point Humidity Pressure Visibility Wind Dir Wind Speed Gust Speed Precip Events Conditions
12:15 AM 35.6 °F 28.6 °F 30.2 °F 81% 30.11 in 10.0 mi SSE 9.2 mph - N/A   Overcast
12:35 AM 35.6 °F 28.6 °F 28.4 °F 75% 30.10 in 10.0 mi SSE 9.2 mph - N/A   Overcast
12:55 AM 35.6 °F 29.2 °F 28.4 °F 75% 30.09 in 10.0 mi SSE 8.1 mph - N/A   Overcast
1:15 AM 35.6 °F 29.2 °F 28.4 °F 75% 30.09 in 10.0 mi SSE 8.1 mph - N/A   Overcast
1:35 AM 35.6 °F 29.9 °F 30.2 °F 81% 30.09 in 10.0 mi SSE 6.9 mph - N/A   Overcast
1:55 AM 35.6 °F 28.0 °F 30.2 °F 81% 30.08 in 10.0 mi SSE 10.4 mph - N/A   Overcast
2:15 AM 35.6 °F 29.2 °F 30.2 °F 81% 30.08 in 10.0 mi SSE 8.1 mph - N/A   Overcast
2:35 AM 35.6 °F 28.6 °F 32.0 °F 87% 30.07 in 10.0 mi SSE 9.2 mph - N/A   Overcast
2:55 AM 35.6 °F 29.2 °F 33.8 °F 93% 30.07 in 10.0 mi SSE 8.1 mph - N/A   Overcast
3:15 AM 35.6 °F 29.2 °F 33.8 °F 93% 30.06 in 10.0 mi SSE 8.1 mph - N/A   Overcast
3:35 AM 33.8 °F 27.0 °F 33.8 °F 100% 30.05 in 10.0 mi SSE 8.1 mph - N/A   Overcast
3:55 AM 35.6 °F 28.0 °F 33.8 °F 93% 30.04 in 10.0 mi South 10.4 mph - N/A   Overcast
4:15 AM 35.6 °F 28.0 °F 33.8 °F 93% 30.03 in 10.0 mi SSE 10.4 mph - N/A   Overcast
4:35 AM 35.6 °F 28.0 °F 33.8 °F 93% 30.03 in 10.0 mi SSE 10.4 mph - N/A   Overcast
4:55 AM 35.6 °F 27.5 °F 33.8 °F 93% 30.01 in 10.0 mi SSE 11.5 mph - N/A   Overcast
5:15 AM 35.6 °F 27.5 °F 33.8 °F 93% 30.00 in 10.0 mi SSE 11.5 mph - N/A   Overcast
5:35 AM 35.6 °F 28.0 °F 35.6 °F 100% 30.01 in 10.0 mi SSE 10.4 mph - 0.01 in   Overcast
5:55 AM 35.6 °F 27.5 °F 33.8 °F 93% 30.00 in 10.0 mi SSE 11.5 mph - 0.02 in   Overcast
6:15 AM 35.6 °F 28.0 °F 35.6 °F 100% 29.99 in 10.0 mi SE 10.4 mph - N/A   Overcast
6:35 AM 35.6 °F 30.7 °F 35.6 °F 100% 29.99 in 10.0 mi SSE 5.8 mph - N/A   Overcast
6:55 AM 37.4 °F 30.3 °F 37.4 °F 100% 29.98 in 10.0 mi SE 10.4 mph - N/A   Overcast
7:15 AM 37.4 °F 30.3 °F 37.4 °F 100% 29.97 in 10.0 mi SSE 10.4 mph - N/A   Overcast
7:35 AM 35.6 °F 27.5 °F 35.6 °F 100% 29.96 in 10.0 mi SE 11.5 mph - N/A   Overcast
7:55 AM 37.4 °F 30.3 °F 37.4 °F 100% 29.96 in 10.0 mi SSE 10.4 mph - 0.01 in   Overcast
8:15 AM 37.4 °F 30.3 °F 37.4 °F 100% 29.95 in 10.0 mi SSE 10.4 mph - N/A   Overcast
8:35 AM 37.4 °F 30.8 °F 37.4 °F 100% 29.95 in 10.0 mi SSE 9.2 mph - N/A   Overcast
8:55 AM 39.2 °F 33.0 °F 39.2 °F 100% 29.94 in 10.0 mi SSE 9.2 mph - N/A   Overcast
9:15 AM 39.2 °F 32.5 °F 39.2 °F 100% 29.94 in 10.0 mi South 10.4 mph - N/A   Overcast
9:35 AM 41.0 °F 33.1 °F 41.0 °F 100% 29.92 in 10.0 mi South 15.0 mph - 0.01 in   Overcast
9:55 AM 42.8 °F 36.2 °F 41.0 °F 93% 29.92 in 10.0 mi South 12.7 mph 19.6 mph 0.01 in   Overcast
10:15 AM 42.8 °F 36.2 °F 41.0 °F 93% 29.92 in 8.0 mi South 12.7 mph - N/A   Overcast
10:35 AM 42.8 °F 37.0 °F 41.0 °F 93% 29.92 in 7.0 mi SSW 10.4 mph 16.1 mph 0.09 in   Overcast
10:55 AM 44.6 °F 43.1 °F 42.8 °F 93% 29.92 in 10.0 mi NNW 3.5 mph - 0.10 in   Overcast
11:15 AM 44.6 °F 41.4 °F 42.8 °F 93% 29.91 in 10.0 mi NW 5.8 mph - N/A   Mostly Cloudy
11:35 AM 44.6 °F 38.4 °F 41.0 °F 87% 29.90 in 10.0 mi NNW 12.7 mph - N/A   Mostly Cloudy
11:55 AM 44.6 °F 40.7 °F 42.8 °F 93% 29.90 in 10.0 mi NNW 6.9 mph - N/A   Mostly Cloudy
12:15 PM 44.6 °F 42.2 °F 41.0 °F 87% 29.89 in 10.0 mi NNW 4.6 mph - N/A   Overcast
12:35 PM 44.6 °F 39.7 °F 41.0 °F 87% 29.88 in 10.0 mi NW 9.2 mph - N/A   Overcast
12:55 PM 44.6 °F 42.2 °F 41.0 °F 87% 29.87 in 10.0 mi NNE 4.6 mph - N/A   Mostly Cloudy
1:15 PM 44.6 °F 41.4 °F 41.0 °F 87% 29.87 in 10.0 mi North 5.8 mph - N/A   Mostly Cloudy
1:35 PM 44.6 °F - 41.0 °F 87% 29.86 in 10.0 mi Calm Calm - N/A   Overcast
1:55 PM 44.6 °F - 39.2 °F 81% 29.86 in 10.0 mi Calm Calm - N/A   Overcast
2:15 PM 44.6 °F 43.1 °F 39.2 °F 81% 29.84 in 10.0 mi East 3.5 mph - N/A   Overcast
2:35 PM 42.8 °F 36.2 °F 39.2 °F 87% 29.84 in 8.0 mi North 12.7 mph - 0.01 in   Overcast
2:55 PM 39.2 °F 33.6 °F 39.2 °F 100% 29.86 in 8.0 mi North 8.1 mph - 0.03 in   Overcast
3:15 PM 39.2 °F 34.2 °F 39.2 °F 100% 29.86 in 10.0 mi NNE 6.9 mph - 0.02 in   Overcast
3:35 PM 39.2 °F 35.0 °F 37.4 °F 93% 29.86 in 10.0 mi NE 5.8 mph - 0.03 in   Mostly Cloudy
3:55 PM 39.2 °F 37.0 °F 37.4 °F 93% 29.86 in 10.0 mi East 3.5 mph - 0.03 in   Overcast
4:15 PM 39.2 °F 37.0 °F 39.2 °F 100% 29.86 in 10.0 mi ESE 3.5 mph - N/A   Overcast
4:35 PM 39.2 °F - 39.2 °F 100% 29.87 in 10.0 mi Calm Calm - N/A   Overcast
4:55 PM 39.2 °F 35.0 °F 39.2 °F 100% 29.88 in 9.0 mi North 5.8 mph - 0.01 in   Overcast
5:15 PM 39.2 °F 33.6 °F 37.4 °F 93% 29.89 in 10.0 mi North 8.1 mph - 0.01 in   Overcast
5:35 PM 37.4 °F 29.3 °F 37.4 °F 100% 29.89 in 10.0 mi North 12.7 mph - 0.01 in   Mostly Cloudy
5:55 PM 37.4 °F 30.3 °F 35.6 °F 93% 29.91 in 10.0 mi North 10.4 mph - 0.01 in   Overcast
6:15 PM 37.4 °F 30.3 °F 35.6 °F 93% 29.92 in 10.0 mi North 10.4 mph - N/A   Overcast
6:35 PM 35.6 °F 27.1 °F 33.8 °F 93% 29.92 in 10.0 mi North 12.7 mph - N/A   Overcast
6:55 PM 35.6 °F 27.5 °F 33.8 °F 93% 29.93 in 10.0 mi North 11.5 mph - N/A   Overcast
7:15 PM 35.6 °F 28.6 °F 33.8 °F 93% 29.94 in 10.0 mi North 9.2 mph - N/A   Overcast
7:35 PM 35.6 °F 29.2 °F 33.8 °F 93% 29.95 in 10.0 mi North 8.1 mph - N/A   Overcast
7:55 PM 35.6 °F 29.2 °F 32.0 °F 87% 29.96 in 10.0 mi North 8.1 mph - N/A   Overcast
8:15 PM 33.8 °F 27.7 °F 32.0 °F 93% 29.97 in 10.0 mi North 6.9 mph - N/A   Overcast
8:35 PM 33.8 °F 27.0 °F 32.0 °F 93% 29.98 in 10.0 mi North 8.1 mph - N/A   Overcast
8:55 PM 33.8 °F 27.7 °F 30.2 °F 87% 29.99 in 10.0 mi North 6.9 mph - N/A   Overcast
9:15 PM 33.8 °F 27.7 °F 30.2 °F 87% 29.99 in 10.0 mi North 6.9 mph - N/A   Overcast
9:35 PM 33.8 °F 27.7 °F 30.2 °F 87% 30.00 in 10.0 mi North 6.9 mph - N/A   Overcast
9:55 PM 33.8 °F 27.7 °F 30.2 °F 87% 30.00 in 10.0 mi North 6.9 mph - N/A   Overcast
10:15 PM 33.8 °F 27.7 °F 30.2 °F 87% 30.01 in 10.0 mi NNE 6.9 mph - N/A   Overcast
10:35 PM 33.8 °F 27.0 °F 30.2 °F 87% 30.01 in 10.0 mi NNE 8.1 mph - N/A   Overcast
10:55 PM 33.8 °F 27.0 °F 28.4 °F 81% 30.02 in 10.0 mi NNE 8.1 mph - N/A   Overcast
11:15 PM 33.8 °F 27.7 °F 28.4 °F 81% 30.02 in 10.0 mi NNE 6.9 mph - N/A   Overcast
11:35 PM 33.8 °F 27.0 °F 28.4 °F 81% 30.02 in 10.0 mi NNE 8.1 mph - N/A   Overcast
11:55 PM 33.8 °F 27.0 °F 28.4 °F 81% 30.03 in 10.0 mi North 8.1 mph - N/A   Overcast